| time (UTC) | temp C | wind direction | speed KPH | gust KPH | rain 1hr cm | rain 24hr cm | rain mn cm | humidity % | barometer mb |
| 20260509011559 | 7 | 214 | 1.6 | 0.0 | 0.00 | 0.00 | 0.00 | 68 | 1011.0 |
| 20260509011058 | 7 | 217 | 3.2 | 0.0 | 0.00 | 0.00 | 0.00 | 67 | 1010.8 |
| 20260509010557 | 8 | 225 | 8.0 | 0.0 | 0.00 | 0.00 | 0.00 | 65 | 1010.6 |
| 20260509005556 | 8 | 245 | 16.1 | 0.0 | 0.00 | 0.00 | 0.00 | 66 | 1010.4 |
| 20260509005057 | 8 | 256 | 14.5 | 0.0 | 0.00 | 0.00 | 0.00 | 64 | 1010.3 |
| 20260509004608 | 8 | 271 | 16.1 | 0.0 | 0.00 | 0.00 | 0.00 | 64 | 1010.2 |
| 20260509004058 | 8 | 261 | 17.7 | 0.0 | 0.00 | 0.00 | 0.00 | 63 | 1010.2 |
| 20260509003559 | 8 | 256 | 19.3 | 0.0 | 0.00 | 0.00 | 0.00 | 62 | 1010.1 |
| 20260509003102 | 8 | 265 | 20.9 | 0.0 | 0.00 | 0.00 | 0.00 | 63 | 1010.1 |
| 20260509002555 | 8 | 259 | 20.9 | 0.0 | 0.00 | 0.00 | 0.00 | 63 | 1010.1 |
| 20260509002056 | 9 | 265 | 22.5 | 0.0 | 0.00 | 0.00 | 0.00 | 63 | 1010.0 |
| 20260509001555 | 9 | 267 | 22.5 | 0.0 | 0.00 | 0.00 | 0.00 | 62 | 1009.9 |
| 20260509001055 | 9 | 269 | 22.5 | 0.0 | 0.00 | 0.00 | 0.00 | 64 | 1009.8 |
| 20260509000554 | 9 | 263 | 20.9 | 0.0 | 0.00 | 0.00 | 0.00 | 63 | 1009.8 |
| 20260509000054 | 9 | 271 | 20.9 | 0.0 | 0.00 | 0.00 | 0.00 | 60 | 1009.9 |
| 20260508235555 | 9 | 251 | 20.9 | 0.0 | 0.00 | 0.00 | 0.00 | 60 | 1009.8 |
| 20260508235056 | 10 | 261 | 19.3 | 0.0 | 0.00 | 0.00 | 0.00 | 63 | 1009.8 |
| 20260508234557 | 10 | 258 | 17.7 | 0.0 | 0.00 | 0.00 | 0.00 | 60 | 1009.7 |
| 20260508234055 | 10 | 266 | 17.7 | 0.0 | 0.00 | 0.00 | 0.00 | 61 | 1009.8 |
| 20260508233555 | 10 | 268 | 19.3 | 0.0 | 0.00 | 0.00 | 0.00 | 63 | 1009.8 |
| 20260508233057 | 10 | 274 | 20.9 | 0.0 | 0.00 | 0.00 | 0.00 | 61 | 1009.8 |
| 20260508232553 | 10 | 271 | 24.1 | 0.0 | 0.00 | 0.00 | 0.00 | 61 | 1009.8 |
| 20260508232057 | 10 | 277 | 24.1 | 0.0 | 0.00 | 0.00 | 0.00 | 61 | 1009.6 |
| 20260508231558 | 10 | 275 | 20.9 | 0.0 | 0.00 | 0.00 | 0.00 | 61 | 1009.6 |
| 20260508231053 | 10 | 294 | 16.1 | 0.0 | 0.00 | 0.00 | 0.00 | 60 | 1009.6 |
| 20260508230552 | 10 | 277 | 16.1 | 0.0 | 0.00 | 0.00 | 0.00 | 61 | 1009.6 |
| 20260508230124 | 10 | 283 | 19.3 | 0.0 | 0.00 | 0.00 | 0.00 | 59 | 1009.6 |
| 20260508225553 | 10 | 278 | 20.9 | 0.0 | 0.00 | 0.00 | 0.00 | 62 | 1009.5 |
| 20260508225055 | 10 | 280 | 24.1 | 0.0 | 0.00 | 0.00 | 0.00 | 63 | 1009.6 |
| 20260508224601 | 10 | 290 | 27.4 | 0.0 | 0.00 | 0.00 | 0.00 | 62 | 1009.5 |
| 20260508224052 | 10 | 275 | 25.7 | 0.0 | 0.00 | 0.00 | 0.00 | 60 | 1009.5 |
| 20260508223552 | 10 | 285 | 22.5 | 0.0 | 0.00 | 0.00 | 0.00 | 62 | 1009.4 |
| 20260508223052 | 10 | 290 | 22.5 | 0.0 | 0.00 | 0.00 | 0.00 | 60 | 1009.5 |
| 20260508222552 | 10 | 256 | 22.5 | 0.0 | 0.00 | 0.00 | 0.00 | 63 | 1009.4 |
| 20260508222052 | 10 | 269 | 20.9 | 0.0 | 0.00 | 0.00 | 0.00 | 62 | 1009.4 |
| 20260508221552 | 10 | 267 | 19.3 | 0.0 | 0.00 | 0.00 | 0.00 | 62 | 1009.3 |
| 20260508221051 | 10 | 263 | 19.3 | 0.0 | 0.00 | 0.00 | 0.00 | 61 | 1009.4 |
| 20260508220552 | 10 | 253 | 19.3 | 0.0 | 0.00 | 0.00 | 0.00 | 61 | 1009.4 |
| 20260508220117 | 10 | 258 | 20.9 | 0.0 | 0.00 | 0.00 | 0.00 | 64 | 1009.4 |
| 20260508215551 | 10 | 265 | 22.5 | 0.0 | 0.00 | 0.00 | 0.00 | 64 | 1009.4 |
| 20260508215051 | 10 | 273 | 22.5 | 0.0 | 0.00 | 0.00 | 0.00 | 63 | 1009.4 |
| 20260508214556 | 11 | 259 | 22.5 | 0.0 | 0.00 | 0.00 | 0.00 | 61 | 1009.4 |
| 20260508214050 | 11 | 271 | 17.7 | 0.0 | 0.00 | 0.00 | 0.00 | 62 | 1009.4 |
| 20260508213550 | 11 | 263 | 14.5 | 0.0 | 0.00 | 0.00 | 0.00 | 62 | 1009.4 |
| 20260508213054 | 11 | 246 | 17.7 | 0.0 | 0.00 | 0.00 | 0.00 | 63 | 1009.6 |
| 20260508212550 | 10 | 244 | 19.3 | 0.0 | 0.00 | 0.00 | 0.00 | 64 | 1009.6 |
| 20260508212050 | 10 | 251 | 20.9 | 0.0 | 0.00 | 0.00 | 0.00 | 66 | 1009.5 |
| 20260508211552 | 10 | 262 | 20.9 | 0.0 | 0.00 | 0.00 | 0.00 | 66 | 1009.5 |
| 20260508211050 | 10 | 286 | 20.9 | 0.0 | 0.00 | 0.00 | 0.00 | 65 | 1009.6 |
| 20260508210550 | 10 | 280 | 22.5 | 0.0 | 0.00 | 0.00 | 0.00 | 68 | 1009.5 |
| 20260508210050 | 10 | 290 | 24.1 | 0.0 | 0.00 | 0.00 | 0.00 | 68 | 1009.5 |
| 20260508205549 | 9 | 252 | 25.7 | 0.0 | 0.00 | 0.00 | 0.00 | 67 | 1009.5 |
| 20260508205049 | 9 | 283 | 30.6 | 0.0 | 0.00 | 0.00 | 0.00 | 66 | 1009.6 |
| 20260508204600 | 9 | 292 | 33.8 | 0.0 | 0.00 | 0.00 | 0.00 | 68 | 1009.5 |
| 20260508204051 | 9 | 281 | 29.0 | 0.0 | 0.00 | 0.00 | 0.00 | 66 | 1009.5 |
| 20260508203548 | 8 | 294 | 19.3 | 0.0 | 0.00 | 0.00 | 0.00 | 70 | 1009.4 |
| 20260508203049 | 8 | 289 | 8.0 | 0.0 | 0.00 | 0.00 | 0.00 | 73 | 1009.4 |
| 20260508202548 | 8 | 330 | 4.8 | 0.0 | 0.00 | 0.00 | 0.00 | 75 | 1009.3 |
| 20260508202050 | 8 | 31 | 3.2 | 0.0 | 0.00 | 0.00 | 0.00 | 70 | 1009.3 |
| 20260508201549 | 8 | 30 | 6.4 | 0.0 | 0.00 | 0.00 | 0.00 | 73 | 1009.3 |
| 20260508201048 | 8 | 17 | 8.0 | 0.0 | 0.00 | 0.00 | 0.00 | 73 | 1009.3 |
| 20260508200548 | 8 | 28 | 9.7 | 0.0 | 0.00 | 0.00 | 0.00 | 75 | 1009.3 |
| 20260508200050 | 7 | 13 | 14.5 | 0.0 | 0.00 | 0.00 | 0.00 | 77 | 1009.4 |
| 20260508195547 | 7 | 15 | 17.7 | 0.0 | 0.00 | 0.00 | 0.00 | 76 | 1009.4 |
| 20260508195047 | 7 | 360 | 19.3 | 0.0 | 0.00 | 0.00 | 0.00 | 77 | 1009.6 |
| 20260508194547 | 7 | 355 | 20.9 | 0.0 | 0.00 | 0.00 | 0.00 | 76 | 1009.7 |
| 20260508194048 | 8 | 360 | 22.5 | 0.0 | 0.00 | 0.00 | 0.00 | 74 | 1009.8 |
| 20260508193547 | 9 | 355 | 22.5 | 0.0 | 0.00 | 0.00 | 0.00 | 68 | 1009.7 |
| 20260508193052 | 11 | 345 | 24.1 | 0.0 | 0.00 | 0.00 | 0.00 | 57 | 1009.7 |
| 20260508192549 | 12 | 248 | 27.4 | 0.0 | 0.00 | 0.00 | 0.00 | 56 | 1009.3 |
| 20260508192045 | 13 | 252 | 27.4 | 0.0 | 0.00 | 0.00 | 0.00 | 58 | 1009.1 |
| 20260508191547 | 13 | 223 | 29.0 | 0.0 | 0.00 | 0.00 | 0.00 | 58 | 1009.2 |
| 20260508191045 | 13 | 193 | 32.2 | 0.0 | 0.00 | 0.00 | 0.00 | 59 | 1009.1 |
| 20260508190545 | 13 | 207 | 30.6 | 0.0 | 0.00 | 0.00 | 0.00 | 58 | 1009.1 |
| 20260508190058 | 13 | 217 | 30.6 | 0.0 | 0.00 | 0.00 | 0.00 | 58 | 1009.0 |
| 20260508185544 | 13 | 255 | 30.6 | 0.0 | 0.00 | 0.00 | 0.00 | 65 | 1008.9 |
| 20260508185046 | 13 | 261 | 30.6 | 0.0 | 0.00 | 0.00 | 0.00 | 62 | 1008.9 |
| 20260508184549 | 13 | 227 | 29.0 | 0.0 | 0.00 | 0.00 | 0.00 | 59 | 1008.9 |
| 20260508184045 | 12 | 236 | 27.4 | 0.0 | 0.00 | 0.00 | 0.00 | 63 | 1009.0 |
| 20260508183542 | 12 | 236 | 25.7 | 0.0 | 0.00 | 0.00 | 0.00 | 66 | 1009.1 |
| 20260508183044 | 12 | 236 | 25.7 | 0.0 | 0.00 | 0.00 | 0.00 | 63 | 1009.2 |
| 20260508182539 | 12 | 246 | 24.1 | 0.0 | 0.00 | 0.00 | 0.00 | 70 | 1009.2 |
| 20260508182039 | 12 | 220 | 22.5 | 0.0 | 0.00 | 0.00 | 0.00 | 66 | 1009.2 |
| 20260508181553 | 11 | 242 | 27.4 | 0.0 | 0.00 | 0.00 | 0.00 | 68 | 1009.3 |
| 20260508181037 | 11 | 242 | 27.4 | 0.0 | 0.00 | 0.00 | 0.00 | 69 | 1009.3 |
| 20260508180538 | 11 | 246 | 25.7 | 0.0 | 0.00 | 0.00 | 0.00 | 64 | 1009.3 |
| 20260508180038 | 11 | 231 | 25.7 | 0.0 | 0.00 | 0.00 | 0.00 | 66 | 1009.3 |
| 20260508175536 | 11 | 252 | 25.7 | 0.0 | 0.00 | 0.00 | 0.00 | 66 | 1009.3 |
| 20260508175038 | 11 | 253 | 27.4 | 0.0 | 0.00 | 0.00 | 0.00 | 67 | 1009.3 |
| 20260508174545 | 11 | 248 | 24.1 | 0.0 | 0.00 | 0.00 | 0.00 | 67 | 1009.4 |
| 20260508174035 | 11 | 238 | 25.7 | 0.0 | 0.00 | 0.00 | 0.00 | 66 | 1009.5 |
| 20260508173535 | 11 | 246 | 27.4 | 0.0 | 0.00 | 0.00 | 0.00 | 64 | 1009.6 |
| 20260508173035 | 11 | 247 | 25.7 | 0.0 | 0.00 | 0.00 | 0.00 | 64 | 1009.6 |
| 20260508172535 | 11 | 254 | 20.9 | 0.0 | 0.00 | 0.00 | 0.00 | 65 | 1009.7 |
| 20260508172035 | 11 | 217 | 20.9 | 0.0 | 0.00 | 0.00 | 0.00 | 62 | 1009.6 |
| 20260508171535 | 11 | 221 | 22.5 | 0.0 | 0.00 | 0.00 | 0.00 | 61 | 1009.8 |
| 20260508171037 | 11 | 251 | 22.5 | 0.0 | 0.00 | 0.00 | 0.00 | 63 | 1009.8 |
| 20260508170534 | 11 | 245 | 25.7 | 0.0 | 0.00 | 0.00 | 0.00 | 60 | 1009.9 |
| 20260508170035 | 11 | 241 | 29.0 | 0.0 | 0.00 | 0.00 | 0.00 | 62 | 1009.9 |
| 20260508165537 | 11 | 247 | 29.0 | 0.0 | 0.00 | 0.00 | 0.00 | 61 | 1009.9 |
| 20260508165034 | 11 | 232 | 22.5 | 0.0 | 0.00 | 0.00 | 0.00 | 60 | 1010.0 |
| 20260508164533 | 11 | 256 | 16.1 | 0.0 | 0.00 | 0.00 | 0.00 | 57 | 1010.0 |
| 20260508164034 | 11 | 248 | 17.7 | 0.0 | 0.00 | 0.00 | 0.00 | 58 | 1010.0 |
| 20260508163535 | 11 | 238 | 24.1 | 0.0 | 0.00 | 0.00 | 0.00 | 62 | 1009.9 |
| 20260508163038 | 11 | 259 | 30.6 | 0.0 | 0.00 | 0.00 | 0.00 | 64 | 1010.0 |
| 20260508162531 | 11 | 224 | 29.0 | 0.0 | 0.00 | 0.00 | 0.00 | 65 | 1009.9 |
| 20260508162033 | 11 | 257 | 30.6 | 0.0 | 0.00 | 0.00 | 0.00 | 63 | 1009.8 |
| 20260508161535 | 11 | 251 | 30.6 | 0.0 | 0.00 | 0.00 | 0.00 | 58 | 1009.8 |
| 20260508161031 | 11 | 246 | 25.7 | 0.0 | 0.00 | 0.00 | 0.00 | 59 | 1009.9 |
| 20260508160529 | 11 | 233 | 25.7 | 0.0 | 0.00 | 0.00 | 0.00 | 61 | 1009.9 |
| 20260508160031 | 11 | 249 | 29.0 | 0.0 | 0.00 | 0.00 | 0.00 | 66 | 1009.9 |
| 20260508155532 | 10 | 240 | 27.4 | 0.0 | 0.00 | 0.00 | 0.00 | 65 | 1009.9 |
| 20260508155031 | 10 | 253 | 22.5 | 0.0 | 0.00 | 0.00 | 0.00 | 65 | 1009.8 |
| 20260508154528 | 10 | 263 | 22.5 | 0.0 | 0.00 | 0.00 | 0.00 | 61 | 1009.9 |
| 20260508154031 | 9 | 290 | 20.9 | 0.0 | 0.00 | 0.00 | 0.00 | 59 | 1010.0 |
| 20260508153531 | 9 | 289 | 19.3 | 0.0 | 0.00 | 0.00 | 0.00 | 62 | 1010.0 |
| 20260508153027 | 9 | 277 | 24.1 | 0.0 | 0.00 | 0.00 | 0.00 | 64 | 1010.1 |
| 20260508152528 | 9 | 274 | 25.7 | 0.0 | 0.00 | 0.00 | 0.00 | 60 | 1010.0 |
| 20260508152027 | 9 | 267 | 27.4 | 0.0 | 0.00 | 0.00 | 0.00 | 63 | 1009.8 |
| 20260508151528 | 10 | 264 | 27.4 | 0.0 | 0.00 | 0.00 | 0.00 | 63 | 1009.8 |
| 20260508151027 | 10 | 262 | 24.1 | 0.0 | 0.00 | 0.00 | 0.00 | 58 | 1009.8 |
| 20260508150526 | 10 | 279 | 24.1 | 0.0 | 0.00 | 0.00 | 0.00 | 61 | 1009.8 |
| 20260508150032 | 10 | 269 | 22.5 | 0.0 | 0.00 | 0.00 | 0.00 | 62 | 1009.7 |
| 20260508145527 | 10 | 263 | 20.9 | 0.0 | 0.00 | 0.00 | 0.00 | 62 | 1009.8 |
| 20260508145027 | 10 | 263 | 19.3 | 0.0 | 0.00 | 0.00 | 0.00 | 60 | 1009.8 |
| 20260508144526 | 10 | 280 | 20.9 | 0.0 | 0.00 | 0.00 | 0.00 | 58 | 1009.9 |
| 20260508144026 | 10 | 243 | 19.3 | 0.0 | 0.00 | 0.00 | 0.00 | 62 | 1009.8 |
| 20260508143522 | 10 | 248 | 16.1 | 0.0 | 0.00 | 0.00 | 0.00 | 66 | 1009.8 |
| 20260508143025 | 10 | 248 | 19.3 | 0.0 | 0.00 | 0.00 | 0.00 | 62 | 1009.7 |
| 20260508142523 | 9 | 243 | 19.3 | 0.0 | 0.00 | 0.00 | 0.00 | 66 | 1009.7 |
| 20260508142024 | 9 | 277 | 12.9 | 0.0 | 0.00 | 0.00 | 0.00 | 59 | 1009.7 |
| 20260508141519 | 9 | 267 | 12.9 | 0.0 | 0.00 | 0.00 | 0.00 | 63 | 1009.7 |
| 20260508141018 | 8 | 232 | 14.5 | 0.0 | 0.00 | 0.00 | 0.00 | 64 | 1009.7 |
| 20260508140516 | 8 | 242 | 12.9 | 0.0 | 0.00 | 0.00 | 0.00 | 64 | 1009.7 |
| 20260508140025 | 8 | 244 | 11.3 | 0.0 | 0.00 | 0.00 | 0.00 | 61 | 1009.6 |
| 20260508135516 | 8 | 293 | 9.7 | 0.0 | 0.00 | 0.00 | 0.00 | 61 | 1009.7 |
| 20260508135016 | 8 | 279 | 11.3 | 0.0 | 0.00 | 0.00 | 0.00 | 62 | 1009.7 |
| 20260508134526 | 8 | 252 | 16.1 | 0.0 | 0.00 | 0.00 | 0.00 | 66 | 1009.8 |
| 20260508134015 | 8 | 259 | 19.3 | 0.0 | 0.00 | 0.00 | 0.00 | 68 | 1009.9 |
| 20260508133513 | 8 | 279 | 20.9 | 0.0 | 0.00 | 0.00 | 0.00 | 64 | 1009.8 |
| 20260508133013 | 8 | 265 | 19.3 | 0.0 | 0.00 | 0.00 | 0.00 | 64 | 1009.9 |
| 20260508132515 | 8 | 266 | 17.7 | 0.0 | 0.00 | 0.00 | 0.00 | 64 | 1009.9 |
| 20260508132012 | 8 | 281 | 17.7 | 0.0 | 0.00 | 0.00 | 0.00 | 68 | 1009.9 |
| 20260508131511 | 8 | 257 | 19.3 | 0.0 | 0.00 | 0.00 | 0.00 | 71 | 1009.9 |
| 20260508131010 | 8 | 257 | 20.9 | 0.0 | 0.00 | 0.00 | 0.00 | 72 | 1010.0 |
| 20260508130509 | 7 | 248 | 19.3 | 0.0 | 0.00 | 0.00 | 0.00 | 73 | 1010.1 |
| 20260508130009 | 7 | 252 | 17.7 | 0.0 | 0.00 | 0.00 | 0.00 | 71 | 1010.1 |
| 20260508125508 | 7 | 250 | 16.1 | 0.0 | 0.00 | 0.00 | 0.00 | 72 | 1010.1 |
| 20260508125009 | 7 | 286 | 16.1 | 0.0 | 0.00 | 0.00 | 0.00 | 69 | 1010.1 |
| 20260508124510 | 7 | 271 | 16.1 | 0.0 | 0.00 | 0.00 | 0.00 | 71 | 1010.1 |
| 20260508124009 | 7 | 279 | 16.1 | 0.0 | 0.00 | 0.00 | 0.00 | 68 | 1010.3 |
| 20260508123505 | 7 | 284 | 14.5 | 0.0 | 0.00 | 0.00 | 0.00 | 73 | 1010.3 |
| 20260508123005 | 7 | 265 | 16.1 | 0.0 | 0.00 | 0.00 | 0.00 | 74 | 1010.2 |
| 20260508122503 | 7 | 261 | 17.7 | 0.0 | 0.00 | 0.00 | 0.00 | 76 | 1010.3 |
| 20260508122002 | 6 | 251 | 17.7 | 0.0 | 0.00 | 0.00 | 0.00 | 78 | 1010.2 |
| 20260508121501 | 6 | 234 | 16.1 | 0.0 | 0.00 | 0.00 | 0.00 | 78 | 1010.2 |
| 20260508121059 | 6 | 217 | 14.5 | 0.0 | 0.00 | 0.00 | 0.00 | 79 | 1010.1 |
| 20260508120600 | 5 | 265 | 14.5 | 0.0 | 0.00 | 0.00 | 0.00 | 79 | 1010.2 |
| 20260508120058 | 5 | 243 | 12.9 | 0.0 | 0.00 | 0.00 | 0.00 | 80 | 1010.3 |
| 20260508115557 | 5 | 249 | 12.9 | 0.0 | 0.00 | 0.00 | 0.00 | 80 | 1010.3 |
| 20260508115056 | 5 | 252 | 9.7 | 0.0 | 0.00 | 0.00 | 0.00 | 80 | 1010.3 |
| 20260508114555 | 5 | 229 | 8.0 | 0.0 | 0.00 | 0.00 | 0.00 | 80 | 1010.3 |
| 20260508114057 | 5 | 226 | 6.4 | 0.0 | 0.00 | 0.00 | 0.00 | 80 | 1010.2 |
| 20260508113553 | 5 | 223 | 4.8 | 0.0 | 0.00 | 0.00 | 0.00 | 80 | 1010.2 |
| 20260508113101 | 5 | 223 | 4.8 | 0.0 | 0.00 | 0.00 | 0.00 | 80 | 1010.2 |
| 20260508112552 | 4 | 225 | 8.0 | 0.0 | 0.00 | 0.00 | 0.00 | 80 | 1010.2 |
| 20260508112055 | 4 | 242 | 6.4 | 0.0 | 0.00 | 0.00 | 0.00 | 79 | 1010.2 |
| 20260508111552 | 4 | 222 | 3.2 | 0.0 | 0.00 | 0.00 | 0.00 | 79 | 1010.2 |
| 20260508111055 | 4 | 226 | 3.2 | 0.0 | 0.00 | 0.00 | 0.00 | 79 | 1010.1 |
| 20260508110554 | 4 | 229 | 3.2 | 0.0 | 0.00 | 0.00 | 0.00 | 79 | 1010.1 |
| 20260508110051 | 4 | 225 | 6.4 | 0.0 | 0.00 | 0.00 | 0.00 | 79 | 1010.1 |
| 20260508105550 | 4 | 227 | 4.8 | 0.0 | 0.00 | 0.00 | 0.00 | 79 | 1010.0 |
| 20260508105048 | 4 | 180 | 6.4 | 0.0 | 0.00 | 0.00 | 0.00 | 79 | 1009.9 |
| 20260508104549 | 4 | 225 | 6.4 | 0.0 | 0.00 | 0.00 | 0.00 | 80 | 1009.9 |
| 20260508104049 | 4 | 225 | 9.7 | 0.0 | 0.00 | 0.00 | 0.00 | 81 | 1009.8 |
| 20260508103548 | 4 | 228 | 16.1 | 0.0 | 0.00 | 0.00 | 0.00 | 83 | 1009.8 |
| 20260508103050 | 3 | 250 | 16.1 | 0.0 | 0.00 | 0.00 | 0.00 | 84 | 1009.8 |
| 20260508102547 | 3 | 260 | 14.5 | 0.0 | 0.00 | 0.00 | 0.00 | 84 | 1009.8 |
| 20260508102046 | 3 | 242 | 9.7 | 0.0 | 0.00 | 0.00 | 0.00 | 83 | 1009.7 |
| 20260508101546 | 3 | 240 | 9.7 | 0.0 | 0.00 | 0.00 | 0.00 | 83 | 1009.7 |
| 20260508101046 | 3 | 257 | 8.0 | 0.0 | 0.00 | 0.00 | 0.00 | 84 | 1009.6 |
| 20260508100549 | 3 | 294 | 4.8 | 0.0 | 0.00 | 0.00 | 0.00 | 82 | 1009.6 |
| 20260508100045 | 3 | 258 | 4.8 | 0.0 | 0.00 | 0.00 | 0.00 | 85 | 1009.5 |
| 20260508095545 | 3 | 308 | 3.2 | 0.0 | 0.00 | 0.00 | 0.00 | 85 | 1009.6 |
| 20260508095044 | 3 | 325 | 1.6 | 0.0 | 0.00 | 0.00 | 0.00 | 86 | 1009.6 |
| 20260508094606 | 3 | 339 | 1.6 | 0.0 | 0.00 | 0.00 | 0.00 | 85 | 1009.5 |
| 20260508094046 | 2 | 163 | 1.6 | 0.0 | 0.00 | 0.00 | 0.00 | 85 | 1009.4 |
| 20260508093542 | 2 | 161 | 3.2 | 0.0 | 0.00 | 0.00 | 0.00 | 86 | 1009.2 |
| 20260508093043 | 2 | 109 | 3.2 | 0.0 | 0.00 | 0.00 | 0.00 | 86 | 1009.2 |
| 20260508092542 | 2 | 82 | 3.2 | 0.0 | 0.00 | 0.00 | 0.00 | 85 | 1009.2 |
| 20260508092040 | 2 | 146 | 3.2 | 0.0 | 0.00 | 0.00 | 0.00 | 86 | 1009.0 |
| 20260508091542 | 2 | 133 | 1.6 | 0.0 | 0.00 | 0.00 | 0.00 | 86 | 1009.1 |
| 20260508091040 | 2 | 148 | 3.2 | 0.0 | 0.00 | 0.00 | 0.00 | 86 | 1009.0 |
| 20260508090539 | 2 | 150 | 3.2 | 0.0 | 0.00 | 0.00 | 0.00 | 86 | 1009.1 |
| 20260508090043 | 2 | 136 | 0.0 | 0.0 | 0.00 | 0.00 | 0.00 | 86 | 1008.9 |
| 20260508085539 | 2 | 144 | 1.6 | 0.0 | 0.00 | 0.00 | 0.00 | 85 | 1009.0 |
| 20260508085041 | 2 | 144 | 1.6 | 0.0 | 0.00 | 0.00 | 0.00 | 85 | 1008.9 |
| 20260508084538 | 2 | 143 | 0.0 | 0.0 | 0.00 | 0.00 | 0.00 | 85 | 1008.9 |
| 20260508084038 | 2 | 150 | 1.6 | 0.0 | 0.00 | 0.00 | 0.00 | 85 | 1008.9 |
| 20260508083542 | 2 | 150 | 4.8 | 0.0 | 0.00 | 0.00 | 0.00 | 85 | 1008.7 |
| 20260508083036 | 2 | 148 | 6.4 | 0.0 | 0.00 | 0.00 | 0.00 | 85 | 1008.6 |
| 20260508082537 | 2 | 118 | 4.8 | 0.0 | 0.00 | 0.00 | 0.00 | 85 | 1008.6 |
| 20260508082037 | 2 | 121 | 6.4 | 0.0 | 0.00 | 0.00 | 0.00 | 86 | 1008.7 |
| 20260508081558 | 2 | 128 | 4.8 | 0.0 | 0.00 | 0.00 | 0.00 | 86 | 1008.6 |
| 20260508081035 | 2 | 138 | 3.2 | 0.0 | 0.00 | 0.00 | 0.00 | 85 | 1008.7 |
| 20260508080535 | 2 | 149 | 6.4 | 0.0 | 0.00 | 0.00 | 0.00 | 85 | 1008.8 |
| 20260508080041 | 2 | 136 | 8.0 | 0.0 | 0.00 | 0.00 | 0.00 | 87 | 1008.7 |
| 20260508075536 | 2 | 130 | 8.0 | 0.0 | 0.00 | 0.00 | 0.00 | 87 | 1008.6 |
| 20260508075039 | 2 | 119 | 6.4 | 0.0 | 0.00 | 0.00 | 0.00 | 87 | 1008.7 |
| 20260508074535 | 2 | 135 | 4.8 | 0.0 | 0.00 | 0.00 | 0.00 | 86 | 1008.6 |
| 20260508074035 | 2 | 149 | 4.8 | 0.0 | 0.00 | 0.00 | 0.00 | 85 | 1008.6 |
| 20260508073535 | 2 | 148 | 3.2 | 0.0 | 0.00 | 0.00 | 0.00 | 85 | 1008.6 |
| 20260508073038 | 2 | 146 | 1.6 | 0.0 | 0.00 | 0.00 | 0.00 | 86 | 1008.6 |
| 20260508072534 | 1 | 146 | 4.8 | 0.0 | 0.00 | 0.00 | 0.00 | 86 | 1008.6 |
| 20260508072034 | 1 | 145 | 8.0 | 0.0 | 0.00 | 0.00 | 0.00 | 85 | 1008.6 |
| 20260508071541 | 1 | 136 | 6.4 | 0.0 | 0.00 | 0.00 | 0.00 | 86 | 1008.5 |
| 20260508071033 | 1 | 150 | 3.2 | 0.0 | 0.00 | 0.00 | 0.00 | 86 | 1008.5 |
| 20260508070533 | 1 | 150 | 3.2 | 0.0 | 0.00 | 0.00 | 0.00 | 86 | 1008.5 |
| 20260508070035 | 1 | 150 | 3.2 | 0.0 | 0.00 | 0.00 | 0.00 | 86 | 1008.5 |
| 20260508065534 | 1 | 140 | 4.8 | 0.0 | 0.00 | 0.00 | 0.00 | 86 | 1008.4 |
| 20260508065033 | 1 | 141 | 4.8 | 0.0 | 0.00 | 0.00 | 0.00 | 86 | 1008.4 |
| 20260508064533 | 1 | 138 | 4.8 | 0.0 | 0.00 | 0.00 | 0.00 | 86 | 1008.4 |
| 20260508064033 | 1 | 145 | 4.8 | 0.0 | 0.00 | 0.00 | 0.00 | 87 | 1008.5 |
| 20260508063534 | 1 | 360 | 4.8 | 0.0 | 0.00 | 0.00 | 0.00 | 87 | 1008.5 |
| 20260508063045 | 1 | 360 | 4.8 | 0.0 | 0.00 | 0.00 | 0.00 | 87 | 1008.6 |
| 20260508062533 | 1 | 360 | 4.8 | 0.0 | 0.00 | 0.00 | 0.00 | 87 | 1008.6 |
| 20260508062032 | 1 | 360 | 4.8 | 0.0 | 0.00 | 0.00 | 0.00 | 88 | 1008.6 |
| 20260508061532 | 1 | 360 | 6.4 | 0.0 | 0.00 | 0.00 | 0.00 | 88 | 1008.6 |
| 20260508061032 | 1 | 360 | 6.4 | 0.0 | 0.00 | 0.00 | 0.00 | 87 | 1008.6 |
| 20260508060531 | 1 | 360 | 6.4 | 0.0 | 0.00 | 0.00 | 0.00 | 86 | 1008.7 |
| 20260508060035 | 1 | 141 | 4.8 | 0.0 | 0.00 | 0.00 | 0.00 | 86 | 1008.7 |
| 20260508055531 | 1 | 143 | 6.4 | 0.0 | 0.00 | 0.00 | 0.00 | 86 | 1008.8 |
| 20260508055035 | 1 | 360 | 8.0 | 0.0 | 0.00 | 0.00 | 0.00 | 85 | 1008.7 |
| 20260508054531 | 1 | 141 | 8.0 | 0.0 | 0.00 | 0.00 | 0.00 | 85 | 1008.8 |
| 20260508054028 | 1 | 360 | 6.4 | 0.0 | 0.00 | 0.00 | 0.00 | 84 | 1008.8 |
| 20260508053527 | 1 | 360 | 4.8 | 0.0 | 0.00 | 0.00 | 0.00 | 83 | 1008.8 |
| 20260508053027 | 1 | 360 | 4.8 | 0.0 | 0.00 | 0.00 | 0.00 | 83 | 1008.8 |
| 20260508052529 | 1 | 360 | 4.8 | 0.0 | 0.00 | 0.00 | 0.00 | 83 | 1008.8 |
| 20260508052024 | 1 | 360 | 4.8 | 0.0 | 0.00 | 0.00 | 0.00 | 83 | 1008.7 |
| 20260508051524 | 1 | 360 | 4.8 | 0.0 | 0.00 | 0.00 | 0.00 | 83 | 1008.8 |
| 20260508051023 | 1 | 360 | 4.8 | 0.0 | 0.00 | 0.00 | 0.00 | 82 | 1008.7 |
| 20260508050522 | 2 | 360 | 6.4 | 0.0 | 0.00 | 0.00 | 0.00 | 81 | 1008.7 |
| 20260508050022 | 2 | 146 | 8.0 | 0.0 | 0.00 | 0.00 | 0.00 | 80 | 1008.7 |
| 20260508045522 | 2 | 144 | 8.0 | 0.0 | 0.00 | 0.00 | 0.00 | 81 | 1008.6 |
| 20260508045021 | 2 | 133 | 8.0 | 0.0 | 0.00 | 0.00 | 0.00 | 80 | 1008.6 |
| 20260508044526 | 2 | 144 | 8.0 | 0.0 | 0.00 | 0.00 | 0.00 | 79 | 1008.8 |
| 20260508044019 | 2 | 138 | 6.4 | 0.0 | 0.00 | 0.00 | 0.00 | 78 | 1008.7 |
| 20260508043516 | 2 | 146 | 6.4 | 0.0 | 0.00 | 0.00 | 0.00 | 77 | 1008.7 |
| 20260508043015 | 3 | 144 | 6.4 | 0.0 | 0.00 | 0.00 | 0.00 | 76 | 1008.6 |
| 20260508042518 | 3 | 144 | 4.8 | 0.0 | 0.00 | 0.00 | 0.00 | 76 | 1008.4 |
| 20260508042012 | 3 | 146 | 3.2 | 0.0 | 0.00 | 0.00 | 0.00 | 75 | 1008.4 |
| 20260508041512 | 3 | 146 | 6.4 | 0.0 | 0.00 | 0.00 | 0.00 | 74 | 1008.4 |
| 20260508041010 | 4 | 145 | 6.4 | 0.0 | 0.00 | 0.00 | 0.00 | 74 | 1008.3 |
| 20260508040509 | 4 | 146 | 6.4 | 0.0 | 0.00 | 0.00 | 0.00 | 73 | 1008.3 |
| 20260508040008 | 5 | 130 | 6.4 | 0.0 | 0.00 | 0.00 | 0.00 | 72 | 1008.3 |
| 20260508035507 | 5 | 130 | 6.4 | 0.0 | 0.00 | 0.00 | 0.00 | 71 | 1008.3 |
| 20260508035007 | 5 | 128 | 3.2 | 0.0 | 0.00 | 0.00 | 0.00 | 70 | 1008.4 |
| 20260508034507 | 6 | 227 | 4.8 | 0.0 | 0.00 | 0.00 | 0.00 | 68 | 1008.3 |
| 20260508034008 | 6 | 296 | 8.0 | 0.0 | 0.00 | 0.00 | 0.00 | 67 | 1008.3 |
| 20260508033507 | 6 | 290 | 11.3 | 0.0 | 0.00 | 0.00 | 0.00 | 65 | 1008.4 |
| 20260508033007 | 7 | 281 | 12.9 | 0.0 | 0.00 | 0.00 | 0.00 | 65 | 1008.4 |
| 20260508032508 | 7 | 276 | 12.9 | 0.0 | 0.00 | 0.00 | 0.00 | 66 | 1008.4 |
| 20260508032006 | 7 | 277 | 12.9 | 0.0 | 0.00 | 0.00 | 0.00 | 67 | 1008.5 |
| 20260508031507 | 7 | 284 | 12.9 | 0.0 | 0.00 | 0.00 | 0.00 | 66 | 1008.4 |
| 20260508031008 | 7 | 284 | 12.9 | 0.0 | 0.00 | 0.00 | 0.00 | 66 | 1008.3 |
| 20260508030510 | 7 | 287 | 12.9 | 0.0 | 0.00 | 0.00 | 0.00 | 63 | 1008.3 |
| 20260508030007 | 7 | 285 | 14.5 | 0.0 | 0.00 | 0.00 | 0.00 | 66 | 1008.2 |
| 20260508025505 | 7 | 285 | 14.5 | 0.0 | 0.00 | 0.00 | 0.00 | 66 | 1008.4 |
| 20260508025005 | 7 | 282 | 16.1 | 0.0 | 0.00 | 0.00 | 0.00 | 64 | 1008.4 |
| 20260508024505 | 7 | 274 | 17.7 | 0.0 | 0.00 | 0.00 | 0.00 | 65 | 1008.4 |
| 20260508024005 | 7 | 271 | 17.7 | 0.0 | 0.00 | 0.00 | 0.00 | 62 | 1008.5 |
| 20260508023505 | 7 | 275 | 19.3 | 0.0 | 0.00 | 0.00 | 0.00 | 64 | 1008.4 |
| 20260508023007 | 8 | 267 | 19.3 | 0.0 | 0.00 | 0.00 | 0.00 | 64 | 1008.6 |
| 20260508022504 | 8 | 268 | 19.3 | 0.0 | 0.00 | 0.00 | 0.00 | 65 | 1008.5 |
| 20260508022006 | 8 | 273 | 17.7 | 0.0 | 0.00 | 0.00 | 0.00 | 64 | 1008.6 |
| 20260508021505 | 8 | 270 | 17.7 | 0.0 | 0.00 | 0.00 | 0.00 | 63 | 1008.5 |
| 20260508021005 | 8 | 273 | 17.7 | 0.0 | 0.00 | 0.00 | 0.00 | 63 | 1008.5 |
| 20260508020504 | 8 | 279 | 16.1 | 0.0 | 0.00 | 0.00 | 0.00 | 62 | 1008.4 |
| 20260508020005 | 8 | 277 | 17.7 | 0.0 | 0.00 | 0.00 | 0.00 | 60 | 1008.4 |
| 20260508015504 | 8 | 276 | 19.3 | 0.0 | 0.00 | 0.00 | 0.00 | 63 | 1008.4 |
| 20260508015004 | 8 | 280 | 20.9 | 0.0 | 0.00 | 0.00 | 0.00 | 60 | 1008.4 |
| 20260508014505 | 8 | 276 | 20.9 | 0.0 | 0.00 | 0.00 | 0.00 | 60 | 1008.4 |
| 20260508014004 | 8 | 278 | 20.9 | 0.0 | 0.00 | 0.00 | 0.00 | 62 | 1008.3 |
| 20260508013502 | 8 | 270 | 20.9 | 0.0 | 0.00 | 0.00 | 0.00 | 60 | 1008.3 |
| 20260508013002 | 8 | 277 | 20.9 | 0.0 | 0.00 | 0.00 | 0.00 | 60 | 1008.3 |
| 20260508012505 | 8 | 279 | 20.9 | 0.0 | 0.00 | 0.00 | 0.00 | 59 | 1008.2 |
| 20260508012002 | 8 | 270 | 22.5 | 0.0 | 0.00 | 0.00 | 0.00 | 59 | 1008.2 |